This is the latest recevied weather packets stored in our database for station/object W5ITZ. If no packets are shown the sender has not sent any weather packets the latest 10 day(s).
| Time | Temp. | Humidity | Pressure | Rain* | Wind** | Luminosity | Snow |
|---|---|---|---|---|---|---|---|
| 1777727966 | 13.89° C | 86% | 1019.8 hPa | 0 mm | - | 250 W/m² | - |
| 1777727662 | 13.89° C | 87% | 1019.6 hPa | 0 mm | - | 214 W/m² | - |
| 1777727359 | 13.89° C | 88% | 1019.6 hPa | 0 mm | - | 104 W/m² | - |
| 1777727057 | 13.33° C | 89% | 1019.8 hPa | 0 mm | - | 170 W/m² | - |
| 1777726754 | 13.33° C | 90% | 1019.5 hPa | 0 mm | - | 150 W/m² | - |
| 1777726451 | 13.33° C | 90% | 1019.6 hPa | 0 mm | - | 128 W/m² | - |
| 1777726148 | 13.33° C | 91% | 1019.6 hPa | 0 mm | - | 116 W/m² | - |
| 1777725844 | 12.78° C | 91% | 1019.4 hPa | 0 mm | - | 107 W/m² | - |
| 1777725542 | 12.78° C | 92% | 1019.4 hPa | 0 mm | - | 96 W/m² | - |
| 1777725239 | 12.78° C | 92% | 1019.4 hPa | 0 mm | - | 57 W/m² | - |
| 1777724936 | 12.78° C | 92% | 1019.3 hPa | 0 mm | - | 55 W/m² | - |
| 1777724632 | 12.78° C | 92% | 1019.2 hPa | 0 mm | - | 43 W/m² | - |
| 1777724331 | 12.78° C | 92% | 1019.2 hPa | 0 mm | - | 39 W/m² | - |
| 1777724028 | 12.78° C | 92% | 1018.9 hPa | 0 mm | - | 32 W/m² | - |
| 1777723725 | 12.78° C | 93% | 1018.9 hPa | 0 mm | - | 30 W/m² | - |
| 1777723421 | 12.78° C | 92% | 1018.9 hPa | 0 mm | - | 21 W/m² | - |
| 1777723118 | 12.78° C | 92% | 1018.9 hPa | 0 mm | - | 16 W/m² | - |
| 1777722816 | 12.78° C | 92% | 1018.7 hPa | 0 mm | - | 11 W/m² | - |
| 1777722512 | 12.78° C | 92% | 1018.6 hPa | 0 mm | - | 8 W/m² | - |
| 1777722209 | 12.78° C | 92% | 1018.5 hPa | 0 mm | - | 4 W/m² | - |
| 1777721906 | 12.78° C | 92% | 1018.7 hPa | 0 mm | - | 2 W/m² | - |
| 1777721603 | 12.78° C | 91% | 1018.2 hPa | 0 mm | - | 1 W/m² | - |
| 1777721302 | 12.78° C | 91% | 1018.2 hPa | 0 mm | - | 0 W/m² | - |
| 1777720999 | 13.33° C | 91% | 1018.5 hPa | 0 mm | - | 0 W/m² | - |
| 1777720696 | 13.33° C | 91% | 1018.2 hPa | 0 mm | - | 0 W/m² | - |
* Rain latest hour (hover to see other rain measurements)
** Current wind speed in m/s (hover to see current wind gust speed)